Orbital Elements at Epoch 2459200.5 (2020-Dec-17.0) TDB
Reference: JPL 18 (heliocentric ecliptic J2000)
Element | Value | Uncertainty (1-sigma) | Units |
e | .06869901947118892 | 3.8196e-08 | |
a | 2.772638812375017 | 1.8213e-08 | au |
q | 2.582161244617091 | 1.0529e-07 | au |
i | 17.52362251621839 | 5.7254e-06 | deg |
node | 17.85361571822627 | 1.4189e-05 | deg |
peri | 119.1637087652183 | 5.0499e-05 | deg |
M | 118.5761703596685 | 4.6011e-05 | deg |
tp | 2458645.064935104127 (2019-Jun-10.56493510) | 0.00021577 | TDB |
period | 1686.313723541587 4.62 | 1.6615e-05 4.549e-08 | d yr |
n | .2134834076093088 | 2.1035e-09 | deg/d |
Q | 2.963116380132942 | 1.9464e-08 | au |
|
| | Orbit Determination Parameters
Additional Information
|